| time (UTC) | temp F | wind direction | speed knots | gust knots | rain 1hr in | rain 24hr in | rain mn in | humidity % | barometer mb |
| 20260505023100 | 60 | 84 | 3.5 | 5.2 | 0.00 | 0.00 | 0.00 | 46 | 1003.5 |
| 20260505022518 | 61 | 84 | 2.6 | 3.5 | 0.00 | 0.00 | 0.00 | 45 | 1003.7 |
| 20260505022016 | 62 | 83 | 2.6 | 5.2 | 0.00 | 0.00 | 0.00 | 45 | 1003.6 |
| 20260505021534 | 63 | 98 | 2.6 | 3.5 | 0.00 | 0.00 | 0.00 | 43 | 1003.5 |
| 20260505021052 | 64 | 102 | 1.7 | 2.6 | 0.00 | 0.00 | 0.00 | 41 | 1003.5 |
| 20260505020531 | 65 | 102 | 1.7 | 2.6 | 0.00 | 0.00 | 0.00 | 40 | 1003.4 |
| 20260505020029 | 66 | 102 | 1.7 | 2.6 | 0.00 | 0.00 | 0.00 | 40 | 1003.4 |
| 20260505015527 | 67 | 90 | 1.7 | 5.2 | 0.00 | 0.00 | 0.00 | 33 | 1002.7 |
| 20260505015026 | 67 | 57 | 0.9 | 2.6 | 0.00 | 0.00 | 0.00 | 32 | 1000.7 |
| 20260505014524 | 68 | 57 | 0.9 | 1.7 | 0.00 | 0.00 | 0.00 | 32 | 1003.6 |
| 20260505014022 | 68 | 57 | 0.9 | 1.7 | 0.00 | 0.00 | 0.00 | 31 | 1003.6 |
| 20260505013520 | 68 | 57 | 1.7 | 2.6 | 0.00 | 0.00 | 0.00 | 32 | 1003.5 |
| 20260505013019 | 68 | 57 | 0.9 | 1.7 | 0.00 | 0.00 | 0.00 | 33 | 1003.5 |
| 20260505012517 | 68 | 57 | 0.0 | 0.9 | 0.00 | 0.00 | 0.00 | 35 | 1003.6 |
| 20260505012016 | 68 | 57 | 0.9 | 1.7 | 0.00 | 0.00 | 0.00 | 35 | 1003.6 |
| 20260505011534 | 68 | 57 | 0.9 | 1.7 | 0.00 | 0.00 | 0.00 | 33 | 1003.7 |
| 20260505011032 | 68 | 57 | 0.9 | 1.7 | 0.00 | 0.00 | 0.00 | 31 | 1003.7 |
| 20260505010530 | 67 | 57 | 0.9 | 1.7 | 0.00 | 0.00 | 0.00 | 35 | 1003.9 |
| 20260505010029 | 67 | 57 | 0.0 | 0.9 | 0.00 | 0.00 | 0.00 | 33 | 1003.8 |
| 20260505005547 | 67 | 57 | 0.9 | 2.6 | 0.00 | 0.00 | 0.00 | 34 | 1003.9 |
| 20260505005025 | 67 | 57 | 0.9 | 1.7 | 0.00 | 0.00 | 0.00 | 34 | 1004.0 |
| 20260505004605 | 66 | 57 | 1.7 | 2.6 | 0.00 | 0.00 | 0.00 | 32 | 1003.9 |
| 20260505004022 | 66 | 57 | 0.9 | 1.7 | 0.00 | 0.00 | 0.00 | 34 | 1003.8 |
| 20260505003520 | 66 | 57 | 0.9 | 1.7 | 0.00 | 0.00 | 0.00 | 33 | 1004.0 |
| 20260505003039 | 66 | 57 | 1.7 | 3.5 | 0.00 | 0.00 | 0.00 | 32 | 1004.0 |
| 20260505002517 | 67 | 55 | 1.7 | 3.5 | 0.00 | 0.00 | 0.00 | 32 | 1004.2 |
| 20260505002056 | 67 | 65 | 4.3 | 6.1 | 0.00 | 0.00 | 0.00 | 33 | 1004.1 |
| 20260505001534 | 67 | 42 | 2.6 | 6.1 | 0.00 | 0.00 | 0.00 | 31 | 1004.1 |
| 20260505001033 | 67 | 64 | 3.5 | 7.0 | 0.00 | 0.00 | 0.00 | 33 | 1004.1 |
| 20260505000531 | 68 | 63 | 3.5 | 6.1 | 0.00 | 0.00 | 0.00 | 31 | 1004.2 |
| 20260505000029 | 69 | 8 | 2.6 | 5.2 | 0.00 | 0.00 | 0.00 | 31 | 1004.3 |
| 20260504235527 | 70 | 5 | 3.5 | 6.1 | 0.00 | 0.00 | 0.00 | 30 | 1004.3 |
| 20260504235026 | 71 | 4 | 4.3 | 7.8 | 0.00 | 0.00 | 0.00 | 30 | 1004.3 |
| 20260504234524 | 70 | 4 | 5.2 | 13.0 | 0.00 | 0.00 | 0.00 | 31 | 1004.2 |
| 20260504234023 | 69 | 7 | 5.2 | 11.3 | 0.00 | 0.00 | 0.00 | 31 | 1004.3 |
| 20260504233521 | 67 | 11 | 5.2 | 11.3 | 0.00 | 0.00 | 0.00 | 34 | 1004.4 |
| 20260504233019 | 66 | 19 | 6.1 | 13.0 | 0.00 | 0.00 | 0.00 | 35 | 1004.4 |
| 20260504232517 | 66 | 13 | 7.8 | 15.6 | 0.00 | 0.00 | 0.00 | 35 | 1001.8 |
| 20260504232016 | 66 | 10 | 10.4 | 19.1 | 0.00 | 0.00 | 0.00 | 35 | 1004.0 |
| 20260504231535 | 67 | 13 | 6.1 | 13.0 | 0.00 | 0.00 | 0.00 | 35 | 1004.3 |
| 20260504231033 | 69 | 4 | 8.7 | 18.2 | 0.00 | 0.00 | 0.00 | 34 | 1004.3 |
| 20260504230532 | 71 | 5 | 7.0 | 14.8 | 0.00 | 0.00 | 0.00 | 32 | 1004.4 |
| 20260504230050 | 72 | 330 | 7.8 | 16.5 | 0.00 | 0.00 | 0.00 | 29 | 1004.3 |
| 20260504225528 | 74 | 315 | 5.2 | 11.3 | 0.00 | 0.00 | 0.00 | 26 | 1004.1 |
| 20260504225046 | 76 | 270 | 4.3 | 9.6 | 0.00 | 0.00 | 0.00 | 23 | 1004.0 |
| 20260504224524 | 79 | 262 | 4.3 | 8.7 | 0.00 | 0.00 | 0.00 | 21 | 1004.1 |
| 20260504224023 | 79 | 305 | 3.5 | 12.2 | 0.00 | 0.00 | 0.00 | 22 | 1003.9 |
| 20260504223521 | 79 | 274 | 5.2 | 11.3 | 0.00 | 0.00 | 0.00 | 22 | 1003.7 |
| 20260504223100 | 79 | 256 | 4.3 | 8.7 | 0.00 | 0.00 | 0.00 | 22 | 1003.8 |
| 20260504222518 | 79 | 271 | 0.9 | 5.2 | 0.00 | 0.00 | 0.00 | 22 | 1003.8 |
| 20260504222016 | 79 | 263 | 2.6 | 6.1 | 0.00 | 0.00 | 0.00 | 22 | 1004.0 |
| 20260504221535 | 79 | 249 | 3.5 | 6.1 | 0.00 | 0.00 | 0.00 | 24 | 1004.0 |
| 20260504221033 | 79 | 240 | 3.5 | 7.8 | 0.00 | 0.00 | 0.00 | 24 | 1004.0 |
| 20260504220531 | 80 | 280 | 2.6 | 6.1 | 0.00 | 0.00 | 0.00 | 23 | 1004.1 |
| 20260504220050 | 80 | 286 | 2.6 | 3.5 | 0.00 | 0.00 | 0.00 | 23 | 1004.2 |
| 20260504215528 | 81 | 252 | 4.3 | 7.8 | 0.00 | 0.00 | 0.00 | 24 | 1003.6 |
| 20260504215107 | 81 | 223 | 3.5 | 5.2 | 0.00 | 0.00 | 0.00 | 26 | 1004.5 |
| 20260504214545 | 82 | 208 | 0.9 | 5.2 | 0.00 | 0.00 | 0.00 | 24 | 1004.5 |
| 20260504214023 | 82 | 201 | 1.7 | 3.5 | 0.00 | 0.00 | 0.00 | 23 | 1004.5 |
| 20260504213522 | 81 | 344 | 2.6 | 3.5 | 0.00 | 0.00 | 0.00 | 26 | 1004.6 |
| 20260504213020 | 81 | 344 | 2.6 | 3.5 | 0.00 | 0.00 | 0.00 | 24 | 1004.7 |
| 20260504212518 | 81 | 295 | 1.7 | 3.5 | 0.00 | 0.00 | 0.00 | 23 | 1004.9 |
| 20260504212017 | 81 | 285 | 2.6 | 3.5 | 0.00 | 0.00 | 0.00 | 23 | 1004.8 |
| 20260504211535 | 80 | 269 | 3.5 | 3.5 | 0.00 | 0.00 | 0.00 | 24 | 1005.0 |
| 20260504211033 | 80 | 256 | 3.5 | 6.1 | 0.00 | 0.00 | 0.00 | 24 | 1005.0 |
| 20260504210532 | 80 | 283 | 2.6 | 6.1 | 0.00 | 0.00 | 0.00 | 26 | 1005.1 |
| 20260504210030 | 80 | 306 | 2.6 | 6.1 | 0.00 | 0.00 | 0.00 | 26 | 1005.0 |
| 20260504205529 | 79 | 289 | 3.5 | 7.0 | 0.00 | 0.00 | 0.00 | 26 | 1005.2 |
| 20260504205027 | 79 | 247 | 0.9 | 3.5 | 0.00 | 0.00 | 0.00 | 25 | 1005.2 |
| 20260504204525 | 79 | 233 | 2.6 | 6.1 | 0.00 | 0.00 | 0.00 | 26 | 1005.3 |
| 20260504204044 | 79 | 268 | 3.5 | 8.7 | 0.00 | 0.00 | 0.00 | 26 | 1005.3 |
| 20260504203522 | 80 | 289 | 3.5 | 8.7 | 0.00 | 0.00 | 0.00 | 26 | 1003.0 |
| 20260504203020 | 79 | 284 | 2.6 | 7.8 | 0.00 | 0.00 | 0.00 | 26 | 1005.5 |
| 20260504202539 | 78 | 299 | 2.6 | 7.8 | 0.00 | 0.00 | 0.00 | 26 | 1005.5 |
| 20260504202016 | 78 | 245 | 3.5 | 6.1 | 0.00 | 0.00 | 0.00 | 26 | 1005.5 |
| 20260504201535 | 79 | 282 | 3.5 | 7.0 | 0.00 | 0.00 | 0.00 | 26 | 1005.7 |
| 20260504201034 | 79 | 295 | 1.7 | 5.2 | 0.00 | 0.00 | 0.00 | 27 | 1005.8 |
| 20260504200532 | 78 | 284 | 3.5 | 7.0 | 0.00 | 0.00 | 0.00 | 27 | 1005.8 |
| 20260504200030 | 78 | 278 | 3.5 | 7.8 | 0.00 | 0.00 | 0.00 | 27 | 1005.8 |
| 20260504195529 | 78 | 287 | 2.6 | 7.0 | 0.00 | 0.00 | 0.00 | 28 | 1005.8 |
| 20260504195027 | 78 | 274 | 4.3 | 7.8 | 0.00 | 0.00 | 0.00 | 27 | 1003.3 |
| 20260504194525 | 78 | 270 | 1.7 | 6.1 | 0.00 | 0.00 | 0.00 | 25 | 1005.9 |
| 20260504194024 | 78 | 295 | 2.6 | 6.1 | 0.00 | 0.00 | 0.00 | 26 | 1005.9 |
| 20260504193542 | 77 | 292 | 4.3 | 8.7 | 0.00 | 0.00 | 0.00 | 28 | 1006.1 |
| 20260504193040 | 77 | 282 | 3.5 | 8.7 | 0.00 | 0.00 | 0.00 | 28 | 1006.2 |
| 20260504192539 | 78 | 263 | 2.6 | 9.6 | 0.00 | 0.00 | 0.00 | 27 | 1006.2 |
| 20260504192017 | 78 | 300 | 2.6 | 7.0 | 0.00 | 0.00 | 0.00 | 27 | 1006.4 |
| 20260504191516 | 78 | 277 | 3.5 | 7.0 | 0.00 | 0.00 | 0.00 | 28 | 1006.3 |
| 20260504191034 | 78 | 276 | 1.7 | 5.2 | 0.00 | 0.00 | 0.00 | 27 | 1006.4 |
| 20260504190532 | 78 | 284 | 2.6 | 7.8 | 0.00 | 0.00 | 0.00 | 27 | 1006.0 |
| 20260504190031 | 77 | 279 | 1.7 | 5.2 | 0.00 | 0.00 | 0.00 | 27 | 1003.6 |
| 20260504185529 | 77 | 278 | 2.6 | 5.2 | 0.00 | 0.00 | 0.00 | 26 | 1006.7 |
| 20260504185047 | 77 | 308 | 2.6 | 7.0 | 0.00 | 0.00 | 0.00 | 28 | 1006.9 |
| 20260504184526 | 78 | 338 | 3.5 | 6.1 | 0.00 | 0.00 | 0.00 | 28 | 1007.0 |
| 20260504184045 | 77 | 343 | 1.7 | 3.5 | 0.00 | 0.00 | 0.00 | 28 | 1006.9 |
| 20260504183542 | 77 | 332 | 3.5 | 5.2 | 0.00 | 0.00 | 0.00 | 27 | 1003.9 |
| 20260504183021 | 77 | 301 | 1.7 | 5.2 | 0.00 | 0.00 | 0.00 | 27 | 1003.9 |
| 20260504182519 | 77 | 301 | 1.7 | 2.6 | 0.00 | 0.00 | 0.00 | 26 | 1007.2 |
| 20260504182017 | 77 | 283 | 1.7 | 3.5 | 0.00 | 0.00 | 0.00 | 27 | 1007.2 |
| 20260504181537 | 77 | 299 | 2.6 | 5.2 | 0.00 | 0.00 | 0.00 | 28 | 1005.7 |
| 20260504181035 | 76 | 301 | 1.7 | 5.2 | 0.00 | 0.00 | 0.00 | 27 | 1007.4 |
| 20260504180533 | 75 | 289 | 2.6 | 7.0 | 0.00 | 0.00 | 0.00 | 30 | 1007.4 |
| 20260504180031 | 75 | 277 | 1.7 | 3.5 | 0.00 | 0.00 | 0.00 | 28 | 1007.4 |
| 20260504175529 | 74 | 276 | 2.6 | 5.2 | 0.00 | 0.00 | 0.00 | 30 | 1004.4 |
| 20260504175028 | 74 | 289 | 2.6 | 5.2 | 0.00 | 0.00 | 0.00 | 32 | 1006.0 |
| 20260504174526 | 73 | 281 | 2.6 | 6.1 | 0.00 | 0.00 | 0.00 | 34 | 1007.5 |
| 20260504174024 | 73 | 279 | 2.6 | 2.6 | 0.00 | 0.00 | 0.00 | 33 | 1006.2 |
| 20260504173522 | 73 | 279 | 2.6 | 5.2 | 0.00 | 0.00 | 0.00 | 33 | 1006.1 |
| 20260504173021 | 73 | 285 | 3.5 | 6.1 | 0.00 | 0.00 | 0.00 | 34 | 1007.5 |
| 20260504172519 | 73 | 280 | 3.5 | 6.1 | 0.00 | 0.00 | 0.00 | 35 | 1007.5 |
| 20260504172017 | 73 | 288 | 2.6 | 6.1 | 0.00 | 0.00 | 0.00 | 35 | 1007.5 |
| 20260504171516 | 72 | 270 | 3.5 | 6.1 | 0.00 | 0.00 | 0.00 | 35 | 1007.0 |
| 20260504171035 | 72 | 281 | 3.5 | 6.1 | 0.00 | 0.00 | 0.00 | 35 | 1006.0 |
| 20260504170533 | 72 | 284 | 2.6 | 5.2 | 0.00 | 0.00 | 0.00 | 35 | 1007.6 |
| 20260504151034 | 62 | 142 | 0.9 | 2.6 | 0.00 | 0.00 | 0.00 | 37 | 1007.7 |
| 20260504150532 | 62 | 155 | 0.9 | 2.6 | 0.00 | 0.00 | 0.00 | 37 | 1007.7 |
| 20260504141034 | 57 | 0.0 | 0.0 | 0.00 | 0.00 | 0.00 | 40 | 1008.1 | |
| 20260504140532 | 56 | 234 | 0.9 | 2.6 | 0.00 | 0.00 | 0.00 | 41 | 1008.0 |
| 20260504130531 | 48 | 17 | 0.0 | 1.7 | 0.00 | 0.00 | 0.00 | 47 | 1007.6 |
| 20260504110531 | 43 | 90 | 2.6 | 3.5 | 0.00 | 0.00 | 0.00 | 54 | 1007.1 |
| 20260504100532 | 46 | 74 | 3.5 | 6.1 | 0.00 | 0.00 | 0.00 | 48 | 1007.0 |
| 20260504081516 | 51 | 86 | 1.7 | 3.5 | 0.00 | 0.00 | 0.00 | 39 | 1007.4 |
| 20260504081034 | 51 | 80 | 3.5 | 6.1 | 0.00 | 0.00 | 0.00 | 39 | 1007.4 |
| 20260504080532 | 51 | 62 | 1.7 | 2.6 | 0.00 | 0.00 | 0.00 | 39 | 1007.4 |
| 20260504050524 | 52 | 71 | 3.5 | 6.1 | 0.00 | 0.00 | 0.00 | 38 | 1008.2 |
| 20260504050022 | 52 | 80 | 2.6 | 5.2 | 0.00 | 0.00 | 0.00 | 39 | 1008.2 |
| 20260504045520 | 53 | 88 | 2.6 | 3.5 | 0.00 | 0.00 | 0.00 | 37 | 1008.3 |
| 20260504045019 | 54 | 93 | 1.7 | 3.5 | 0.00 | 0.00 | 0.00 | 35 | 1008.1 |
| 20260504044517 | 55 | 95 | 1.7 | 3.5 | 0.00 | 0.00 | 0.00 | 33 | 1008.3 |
| 20260504044015 | 55 | 81 | 2.6 | 6.1 | 0.00 | 0.00 | 0.00 | 32 | 1008.3 |
| 20260504043534 | 55 | 73 | 3.5 | 7.0 | 0.00 | 0.00 | 0.00 | 32 | 1008.2 |
| 20260504043033 | 55 | 72 | 4.3 | 7.0 | 0.00 | 0.00 | 0.00 | 32 | 1008.2 |
| 20260504042531 | 55 | 72 | 5.2 | 7.8 | 0.00 | 0.00 | 0.00 | 33 | 1008.2 |
| 20260504042029 | 55 | 72 | 2.6 | 5.2 | 0.00 | 0.00 | 0.00 | 35 | 1008.3 |
| 20260504041608 | 56 | 70 | 2.6 | 3.5 | 0.00 | 0.00 | 0.00 | 33 | 1008.3 |
| 20260504041026 | 56 | 70 | 1.7 | 2.6 | 0.00 | 0.00 | 0.00 | 31 | 1008.3 |
| 20260504040524 | 58 | 76 | 1.7 | 5.2 | 0.00 | 0.00 | 0.00 | 30 | 1008.3 |
| 20260504040023 | 58 | 51 | 2.6 | 6.1 | 0.00 | 0.00 | 0.00 | 27 | 1008.3 |
| 20260504035520 | 58 | 1 | 1.7 | 3.5 | 0.00 | 0.00 | 0.00 | 28 | 1008.2 |
| 20260504035018 | 58 | 26 | 3.5 | 7.0 | 0.00 | 0.00 | 0.00 | 26 | 1008.3 |
| 20260504034517 | 59 | 70 | 6.1 | 9.6 | 0.00 | 0.00 | 0.00 | 26 | 1008.2 |
| 20260504034035 | 59 | 70 | 7.0 | 11.3 | 0.00 | 0.00 | 0.00 | 26 | 1008.0 |
| 20260504033533 | 59 | 73 | 7.8 | 11.3 | 0.00 | 0.00 | 0.00 | 26 | 1008.0 |
| 20260504033031 | 59 | 73 | 7.0 | 11.3 | 0.00 | 0.00 | 0.00 | 26 | 1008.1 |
| 20260504032530 | 59 | 73 | 7.0 | 12.2 | 0.00 | 0.00 | 0.00 | 26 | 1008.1 |
| 20260504032028 | 60 | 75 | 6.1 | 11.3 | 0.00 | 0.00 | 0.00 | 26 | 1008.2 |
| 20260504031526 | 60 | 73 | 7.0 | 11.3 | 0.00 | 0.00 | 0.00 | 26 | 1008.1 |
| 20260504031025 | 59 | 69 | 7.0 | 12.2 | 0.00 | 0.00 | 0.00 | 27 | 1008.0 |
| 20260504030523 | 59 | 74 | 7.0 | 11.3 | 0.00 | 0.00 | 0.00 | 28 | 1008.0 |
| 20260504030021 | 59 | 73 | 6.1 | 9.6 | 0.00 | 0.00 | 0.00 | 29 | 1008.0 |
| 20260504025520 | 60 | 80 | 6.1 | 8.7 | 0.00 | 0.00 | 0.00 | 30 | 1007.9 |
| 20260504025018 | 60 | 84 | 6.1 | 11.3 | 0.00 | 0.00 | 0.00 | 29 | 1008.0 |
| 20260504024516 | 61 | 69 | 7.0 | 12.2 | 0.00 | 0.00 | 0.00 | 29 | 1008.1 |
| 20260504024035 | 61 | 71 | 7.0 | 12.2 | 0.00 | 0.00 | 0.00 | 29 | 1008.0 |
| 20260504023533 | 61 | 78 | 7.0 | 12.2 | 0.00 | 0.00 | 0.00 | 29 | 1008.0 |